Regional Weather Roundup
Issued by NWS

Home | Current Version | Previous Version | Text Only | Print | Product List | Glossary On
Versions: 1 2 3 4 5 6 7 8 9 10 11 12 13 14 15 16 17 18 19 20 21 22 23 24 25 26 27 28 29 30 31 32 33 34 35 36 37 38 39 40 41 42 43 44 45 46 47 48 49 50
000
ASUS43 KLSX 211059
RWRMO

WEATHER SUMMARY FOR MISSOURI
NATIONAL WEATHER SERVICE SPRINGFIELD MO
600 AM CDT TUE APR 21 2015

NOTE: "FAIR" INDICATES FEW OR NO CLOUDS BELOW 12,000 FEET WITH NO
       SIGNIFICANT WEATHER AND/OR OBSTRUCTIONS TO VISIBILITY.
       CURRENT SKY AND/OR WEATHER CONDITIONS ARE NOT AVAILABLE FOR
       CHILLICOTHE AND FARMINGTON.

MOZ001>031-035>038-043-044-053-054-211200-
...NORTHERN AND WESTERN MISSOURI...

CITY           SKY/WX    TMP DP  RH WIND       PRES   REMARKS
KANSAS CTY INT CLOUDY    44  33  65 W5        29.85S
KANSAS C DTWN  MOCLDY    47  33  58 CALM      29.86S
LEE`S SUMMIT   MOCLDY    44  32  62 SW6       29.87R
ST JOSEPH      MOCLDY    46  31  55 W9        29.84S
CHILLICOTHE      N/A     46  29  51 W6        29.83S
KIRKSVILLE     MOCLDY    43  26  51 W8        29.79S

$$
MOZ066>068-077>081-088>096-101>105-211200-
...SOUTHWEST MISSOURI...

CITY           SKY/WX    TMP DP  RH WIND       PRES   REMARKS
SPRINGFIELD    PTCLDY    43  34  70 SW10      29.90S
JOPLIN         PTCLDY    49  36  61 SW10      29.92F

$$
MOZ032>034-039>042-045>050-055>058-069>072-211200-
...CENTRAL MISSOURI...

CITY           SKY/WX    TMP DP  RH WIND       PRES   REMARKS
COLUMBIA       MOCLDY    45  33  63 W9        29.84S
JEFFERSON CITY CLEAR     46  31  55 CALM      29.86R
ROLLA          CLEAR     39  31  72 SW10      29.84S
SEDALIA        MOCLDY    44  35  70 SW8       29.87R
WHITEMAN AFB   PTCLDY    44  35  68 W6        29.85S
OSAGE BEACH    FAIR      45  32  61 SW6       29.86S

$$
MOZ051-052-059>065-211200-
...EAST CENTRAL MISSOURI...

CITY           SKY/WX    TMP DP  RH WIND       PRES   REMARKS
ST LOUIS INTL  PTCLDY    47  28  47 SW12      29.83R
SPIRIT OF STL  CLEAR     44  30  57 SW8       29.83R
ST CHARLES     PTCLDY    42  31  64 SW7       29.82R

$$
MOZ072>076-082>087-097>100-106>115-211200-
...SOUTH CENTRAL AND SOUTHEAST MISSOURI...

CITY           SKY/WX    TMP DP  RH WIND       PRES   REMARKS
CAPE GIRARDEAU CLEAR     45  36  70 SW9       29.91R
FARMINGTON     CLEAR     43  28  56 S5        29.90S
POPLAR BLUFF   CLEAR     43  34  70 SW3       29.93R
WEST PLAINS    CLEAR     41  31  67 SW5       29.93S

$$


USA.gov is the U.S. government's official web portal to all federal, state and local government web resources and services.